Weather History for Claremore, OK

Change the Weather History Date:

Wednesday, February 20, 2013

  Actual Average (KTUL) Record (KTUL)
Temperature  
Mean Temperature 32 °F 44 °F  
Max Temperature 35 °F 55 °F 83 °F (1981)
Min Temperature 30 °F 33 °F 9 °F (1918)
Degree Days  
Heating Degree Days 32 21  
Month to date heating degree days 478  
Since 1 July heating degree days 2751  
Moisture  
Dew Point 28 °F    
Average Humidity 81    
Maximum Humidity 100    
Minimum Humidity 56    
Precipitation  
Precipitation 0.20 in 0.07 in 1.94 in (1997)
Month to date precipitation 1.23  
Year to date precipitation 2.89  
Sea Level Pressure  
Sea Level Pressure 30.21 in    
Wind  
Wind Speed 8 mph (ENE)    
Max Wind Speed 15 mph    
Max Gust Speed -    
Visibility 7 miles    
Events Rain , Snow    
T = Trace of Precipitation, MM = Missing Value Source: NWS Daily Summary

Daily Weather History Graph

Daily Weather History Graph

Search for Another Location

Airport:

Trip Planner

Search our weather history database for the weather conditions in past years. The results will help you decide how hot, cold, wet, or windy it might be!

Date:

Astronomy

Feb. 20, 2013 Rise Set
Actual Time 7:03 AM CST 6:08 PM CST
Civil Twilight 6:37 AM CST 6:34 PM CST
Nautical Twilight 6:07 AM CST 7:04 PM CST
Astronomical Twilight 5:37 AM CST 7:34 PM CST
Moon 1:35 PM CST (2/20) 3:19 AM CST (2/20)
Length of Visible Light 11h 57m
Length of Day
11h 04m
Waxing Gibbous, 76% of the Moon is Illuminated
Feb 20
Waxing Gibbous
Feb 25
Full
Mar 4
Last Quarter
Mar 11
New
Mar 19
First Quarter

Hourly Weather History & Observations

Time (CST) Temp. Windchill Dew Point Humidity Pressure Visibility Wind Dir Wind Speed Gust Speed Precip Events Conditions
12:15 AM 33.8 °F 29.6 °F 23.0 °F 65% 30.31 in 10.0 mi NE 4.6 mph - N/A   Clear
12:35 AM 32.0 °F 27.5 °F 23.0 °F 69% 30.31 in 10.0 mi ENE 4.6 mph - N/A   Clear
1:15 AM 33.8 °F 25.8 °F 21.2 °F 60% 30.30 in 10.0 mi ENE 10.4 mph - N/A   Clear
1:35 AM 33.8 °F 27.0 °F 23.0 °F 65% 30.30 in 10.0 mi NE 8.1 mph - N/A   Clear
2:15 AM 33.8 °F 27.0 °F 21.2 °F 60% 30.30 in 10.0 mi ENE 8.1 mph - N/A   Clear
2:35 AM 33.8 °F 27.0 °F 21.2 °F 60% 30.29 in 10.0 mi ENE 8.1 mph - N/A   Clear
2:55 AM 33.8 °F 25.3 °F 21.2 °F 60% 30.28 in 10.0 mi ENE 11.5 mph - N/A   Clear
3:15 AM 32.0 °F 22.5 °F 21.2 °F 64% 30.28 in 10.0 mi ENE 12.7 mph - N/A   Clear
3:35 AM 32.0 °F 22.5 °F 21.2 °F 64% 30.27 in 10.0 mi ENE 12.7 mph - N/A   Clear
3:55 AM 32.0 °F 22.1 °F 19.4 °F 60% 30.26 in 10.0 mi ENE 13.8 mph - N/A   Clear
4:15 AM 32.0 °F 23.0 °F 19.4 °F 60% 30.26 in 10.0 mi ENE 11.5 mph - N/A   Clear
4:35 AM 32.0 °F 24.2 °F 19.4 °F 60% 30.27 in 10.0 mi ENE 9.2 mph - N/A   Clear
4:55 AM 33.8 °F 23.9 °F 19.4 °F 56% 30.25 in 10.0 mi ENE 15.0 mph - N/A   Clear
5:15 AM 33.8 °F 25.8 °F 19.4 °F 56% 30.27 in 10.0 mi ENE 10.4 mph - N/A   Clear
5:35 AM 33.8 °F 27.0 °F 19.4 °F 56% 30.29 in 10.0 mi East 8.1 mph - N/A   Clear
6:15 AM 33.8 °F 27.0 °F 19.4 °F 56% 30.29 in 10.0 mi NE 8.1 mph - N/A   Scattered Clouds
6:35 AM 33.8 °F 25.8 °F 19.4 °F 56% 30.30 in 10.0 mi NE 10.4 mph - N/A   Scattered Clouds
6:55 AM 33.8 °F 25.8 °F 21.2 °F 60% 30.30 in 10.0 mi ENE 10.4 mph - N/A   Scattered Clouds
7:15 AM 33.8 °F 29.6 °F 21.2 °F 60% 30.31 in 10.0 mi East 4.6 mph - N/A   Scattered Clouds
7:55 AM 33.8 °F 27.7 °F 21.2 °F 60% 30.31 in 10.0 mi ENE 6.9 mph - N/A   Overcast
8:15 AM 33.8 °F 27.7 °F 21.2 °F 60% 30.31 in 7.0 mi ENE 6.9 mph - N/A Snow Light Snow
8:35 AM 32.0 °F 24.8 °F 24.8 °F 75% 30.31 in 1.5 mi East 8.1 mph - N/A Snow Light Snow
8:55 AM 32.0 °F 24.8 °F 26.6 °F 80% 30.32 in 2.5 mi ENE 8.1 mph - N/A Snow Light Snow
9:15 AM 30.2 °F 22.6 °F 28.4 °F 93% 30.31 in 0.5 mi ENE 8.1 mph - 0.01 in Snow Light Snow
9:35 AM 30.2 °F 23.4 °F 28.4 °F 93% 30.31 in 1.0 mi ENE 6.9 mph - 0.02 in Snow Light Snow
9:55 AM 30.2 °F 25.4 °F 28.4 °F 93% 30.31 in 0.8 mi ENE 4.6 mph - 0.03 in Snow Light Snow
10:15 AM 30.2 °F 25.4 °F 28.4 °F 93% 30.32 in 0.5 mi East 4.6 mph - 0.02 in Snow Snow
10:35 AM 30.2 °F 23.4 °F 30.2 °F 100% 30.32 in 0.5 mi ENE 6.9 mph - 0.04 in Snow Snow
11:15 AM 32.0 °F 24.2 °F 30.2 °F 93% 30.30 in 0.5 mi East 9.2 mph - 0.01 in Snow Snow
11:35 AM 32.0 °F 24.8 °F 30.2 °F 93% 30.29 in 0.5 mi East 8.1 mph - 0.02 in Snow Snow
11:55 AM 32.0 °F 24.2 °F 30.2 °F 93% 30.27 in 1.0 mi ENE 9.2 mph - 0.02 in Snow Light Snow
12:15 PM 32.0 °F 24.8 °F 30.2 °F 93% 30.26 in 2.0 mi ENE 8.1 mph - N/A Snow Light Snow
12:35 PM 32.0 °F 23.6 °F 30.2 °F 93% 30.24 in 4.0 mi ENE 10.4 mph - N/A   Overcast
12:55 PM 32.0 °F 23.6 °F 32.0 °F 100% 30.22 in 7.0 mi ENE 10.4 mph - N/A   Overcast
1:15 PM 33.8 °F 25.8 °F 32.0 °F 93% 30.22 in 10.0 mi East 10.4 mph - N/A   Overcast
1:35 PM 33.8 °F 26.4 °F 32.0 °F 93% 30.21 in 4.0 mi ENE 9.2 mph - N/A   Overcast
2:15 PM 33.8 °F 26.4 °F 32.0 °F 93% 30.19 in 7.0 mi ENE 9.2 mph - N/A   Overcast
2:55 PM 33.8 °F 26.4 °F 32.0 °F 93% 30.18 in 7.0 mi East 9.2 mph - N/A   Mostly Cloudy
3:15 PM 35.6 °F 27.5 °F 32.0 °F 87% 30.16 in 7.0 mi East 11.5 mph - N/A Snow Light Snow
3:35 PM 35.6 °F 26.2 °F 32.0 °F 87% 30.15 in 10.0 mi East 15.0 mph - N/A   Overcast
3:55 PM 35.6 °F 29.2 °F 32.0 °F 87% 30.15 in 10.0 mi ENE 8.1 mph - N/A Rain Light Rain
4:15 PM 35.6 °F 28.6 °F 32.0 °F 87% 30.13 in 10.0 mi East 9.2 mph - N/A   Overcast
4:35 PM 35.6 °F 29.9 °F 32.0 °F 87% 30.13 in 10.0 mi East 6.9 mph - N/A   Overcast
5:15 PM 35.6 °F 28.0 °F 32.0 °F 87% 30.11 in 10.0 mi East 10.4 mph - N/A   Overcast
5:35 PM 35.6 °F 28.6 °F 32.0 °F 87% 30.10 in 10.0 mi East 9.2 mph - N/A   Overcast
5:55 PM 35.6 °F 29.2 °F 32.0 °F 87% 30.10 in 10.0 mi East 8.1 mph - N/A   Overcast
6:15 PM 35.6 °F 29.2 °F 32.0 °F 87% 30.10 in 10.0 mi East 8.1 mph - N/A   Overcast
6:35 PM 35.6 °F 27.1 °F 32.0 °F 87% 30.09 in 10.0 mi East 12.7 mph - N/A   Overcast
6:55 PM 35.6 °F 28.6 °F 32.0 °F 87% 30.09 in 10.0 mi East 9.2 mph - 0.01 in Rain Light Rain
7:15 PM 35.6 °F 28.6 °F 32.0 °F 87% 30.09 in 10.0 mi East 9.2 mph - N/A Rain Light Rain
7:35 PM 35.6 °F 28.6 °F 32.0 °F 87% 30.09 in 5.0 mi East 9.2 mph - N/A Rain Light Rain
7:55 PM 33.8 °F 27.0 °F 32.0 °F 93% 30.09 in 7.0 mi East 8.1 mph - 0.01 in Rain Rain
8:15 PM 33.8 °F 27.7 °F 32.0 °F 93% 30.09 in 10.0 mi East 6.9 mph - N/A   Mostly Cloudy
8:35 PM 33.8 °F 25.8 °F 32.0 °F 93% 30.07 in 5.0 mi East 10.4 mph - 0.01 in Rain Light Rain
8:55 PM 33.8 °F 27.0 °F 32.0 °F 93% 30.08 in 5.0 mi East 8.1 mph - 0.02 in   Drizzle
9:15 PM 33.8 °F 28.6 °F 32.0 °F 93% 30.09 in 3.0 mi East 5.8 mph - 0.01 in Rain Light Rain
9:35 PM 33.8 °F 27.7 °F 32.0 °F 93% 30.09 in 5.0 mi ESE 6.9 mph - 0.01 in   Drizzle
9:55 PM 33.8 °F 30.8 °F 32.0 °F 93% 30.10 in 5.0 mi East 3.5 mph - 0.02 in Rain Rain
10:15 PM 33.8 °F 29.6 °F 32.0 °F 93% 30.10 in 2.0 mi East 4.6 mph - 0.01 in Rain Light Rain
10:35 PM 33.8 °F - 32.0 °F 93% 30.11 in 3.0 mi Calm Calm - 0.02 in Rain Light Rain
10:55 PM 32.0 °F 26.4 °F 32.0 °F 100% 30.08 in 1.5 mi East 5.8 mph - 0.04 in Rain Rain
11:15 PM 32.0 °F 26.4 °F 32.0 °F 100% 30.08 in 2.5 mi ESE 5.8 mph - 0.01 in Rain Rain
11:35 PM 32.0 °F 26.4 °F 32.0 °F 100% 30.06 in 3.0 mi East 5.8 mph - 0.01 in   Light Drizzle
11:55 PM 32.0 °F 25.6 °F 32.0 °F 100% 30.06 in 5.0 mi East 6.9 mph - 0.01 in   Light Drizzle